UAL2060 KORD-KBOS

Flight info

Callsign UAL2060
Flight time 1h 44m
Altitude 37000
Route EBAKE WISMO POSTS PADDE SVM DKK PONCT JFUND2
Aircraft B739/M-SDE2E3FGHIRWXY/LB1

Departure

Time 2026-05-04 23:19
Airport Chicago O'Hare International Airport (KORD)

Arrival

Time 2026-05-05 01:04
Airport Boston Logan International Airport (KBOS)
Time Latitude Longitude Altitude Speed Heading
2026-05-04 22:55 41.97359 -87.88717 659 ft 0 kts 357°
2026-05-04 23:07 41.97354 -87.88717 659 ft 2 kts 357°
2026-05-04 23:08 41.97334 -87.88715 659 ft 3 kts 353°
2026-05-04 23:08 41.97314 -87.88712 659 ft 3 kts 348°
2026-05-04 23:08 41.97295 -87.88705 659 ft 3 kts 338°
2026-05-04 23:08 41.97278 -87.88693 659 ft 3 kts 313°
2026-05-04 23:09 41.97270 -87.88677 659 ft 1 kts 271°
2026-05-04 23:09 41.97270 -87.88674 659 ft 1 kts 270°
2026-05-04 23:09 41.97270 -87.88675 659 ft 0 kts 270°
2026-05-04 23:12 41.97270 -87.88684 659 ft 4 kts 269°
2026-05-04 23:13 41.97269 -87.88756 658 ft 11 kts 270°
2026-05-04 23:13 41.97267 -87.88880 658 ft 13 kts 253°
2026-05-04 23:13 41.97202 -87.88972 658 ft 15 kts 249°
2026-05-04 23:13 41.97195 -87.89128 659 ft 18 kts 270°
2026-05-04 23:14 41.97196 -87.89303 664 ft 19 kts 269°
2026-05-04 23:14 41.97196 -87.89494 665 ft 20 kts 273°
2026-05-04 23:14 41.97241 -87.89581 664 ft 5 kts 340°
2026-05-04 23:14 41.97264 -87.89557 663 ft 6 kts 82°
2026-05-04 23:15 41.97298 -87.89472 660 ft 15 kts 46°
2026-05-04 23:15 41.97402 -87.89431 658 ft 17 kts 359°
2026-05-04 23:15 41.97515 -87.89430 657 ft 16 kts 359°
2026-05-04 23:15 41.97624 -87.89431 660 ft 15 kts 360°
2026-05-04 23:16 41.97729 -87.89432 658 ft 15 kts 360°
2026-05-04 23:16 41.97829 -87.89433 659 ft 14 kts 359°
2026-05-04 23:16 41.97899 -87.89418 662 ft 9 kts 25°
2026-05-04 23:16 41.97957 -87.89341 658 ft 14 kts 49°
2026-05-04 23:17 41.98016 -87.89255 660 ft 8 kts 25°
2026-05-04 23:17 41.98068 -87.89281 659 ft 8 kts 320°
2026-05-04 23:17 41.98110 -87.89334 660 ft 8 kts 315°
2026-05-04 23:17 41.98151 -87.89391 661 ft 9 kts 314°
2026-05-04 23:18 41.98201 -87.89458 663 ft 11 kts 315°
2026-05-04 23:18 41.98265 -87.89544 663 ft 15 kts 315°
2026-05-04 23:18 41.98351 -87.89640 665 ft 17 kts 324°
2026-05-04 23:18 41.98391 -87.89803 664 ft 28 kts 270°
2026-05-04 23:19 41.98386 -87.90387 657 ft 97 kts 266°
2026-05-04 23:19 41.98389 -87.91558 671 ft 151 kts 269°
2026-05-04 23:19 41.98404 -87.93065 988 ft 168 kts 265°
2026-05-04 23:19 41.98591 -87.94621 1718 ft 174 kts 291°
2026-05-04 23:20 41.99474 -87.95936 2057 ft 210 kts 319°
2026-05-04 23:20 42.00913 -87.96660 2505 ft 230 kts 348°
2026-05-04 23:20 42.02450 -87.96435 3500 ft 218 kts 15°
2026-05-04 23:20 42.03727 -87.95355 4315 ft 224 kts 41°
2026-05-04 23:21 42.04732 -87.93614 4637 ft 251 kts 59°
2026-05-04 23:21 42.05455 -87.91362 4982 ft 270 kts 74°
2026-05-04 23:21 42.05772 -87.88825 5507 ft 285 kts 89°
2026-05-04 23:21 42.05681 -87.86035 5705 ft 313 kts 97°
2026-05-04 23:22 42.05933 -87.83076 6302 ft 323 kts 67°
2026-05-04 23:22 42.06868 -87.80409 7486 ft 309 kts 60°
2026-05-04 23:22 42.07837 -87.77822 8430 ft 310 kts 61°
2026-05-04 23:22 42.08771 -87.75192 9271 ft 313 kts 62°
2026-05-04 23:23 42.09665 -87.72492 10037 ft 318 kts 64°
2026-05-04 23:23 42.10539 -87.69691 10524 ft 335 kts 65°
2026-05-04 23:23 42.11439 -87.66674 10712 ft 359 kts 66°
2026-05-04 23:23 42.12367 -87.63448 11029 ft 377 kts 67°
2026-05-04 23:24 42.13302 -87.60109 11632 ft 384 kts 67°
2026-05-04 23:24 42.14233 -87.56738 12352 ft 388 kts 67°
2026-05-04 23:24 42.15173 -87.53310 13082 ft 392 kts 68°
2026-05-04 23:24 42.16121 -87.49839 13733 ft 397 kts 68°
2026-05-04 23:25 42.17078 -87.46325 14346 ft 402 kts 68°
2026-05-04 23:25 42.18049 -87.42758 14919 ft 408 kts 68°
2026-05-04 23:25 42.19032 -87.39144 15525 ft 413 kts 68°
2026-05-04 23:25 42.20025 -87.35489 16145 ft 417 kts 68°
2026-05-04 23:26 42.21027 -87.31793 16738 ft 422 kts 68°
2026-05-04 23:26 42.22038 -87.28060 17325 ft 427 kts 68°
2026-05-04 23:26 42.23062 -87.24274 17921 ft 431 kts 68°
2026-05-04 23:26 42.24091 -87.20462 18445 ft 435 kts 68°
2026-05-04 23:27 42.25129 -87.16614 18992 ft 438 kts 68°
2026-05-04 23:27 42.26172 -87.12738 19538 ft 441 kts 68°
2026-05-04 23:27 42.27217 -87.08825 20078 ft 445 kts 70°
2026-05-04 23:27 42.27993 -87.04757 20595 ft 450 kts 80°
2026-05-04 23:28 42.28282 -87.00533 21127 ft 453 kts 87°
2026-05-04 23:28 42.28437 -86.96263 21643 ft 457 kts 88°
2026-05-04 23:28 42.28601 -86.91962 22153 ft 460 kts 86°
2026-05-04 23:28 42.28813 -86.87636 22710 ft 463 kts 86°
2026-05-04 23:29 42.29047 -86.83283 23212 ft 466 kts 85°
2026-05-04 23:29 42.29285 -86.78899 23626 ft 470 kts 86°
2026-05-04 23:29 42.29521 -86.74485 24077 ft 472 kts 86°
2026-05-04 23:29 42.29752 -86.70052 24536 ft 474 kts 86°
2026-05-04 23:30 42.29977 -86.65597 24978 ft 476 kts 86°
2026-05-04 23:30 42.30198 -86.61123 25410 ft 479 kts 86°
2026-05-04 23:30 42.30416 -86.56622 25825 ft 481 kts 86°
2026-05-04 23:30 42.30633 -86.52099 26239 ft 484 kts 86°
2026-05-04 23:31 42.30849 -86.47550 26653 ft 487 kts 86°
2026-05-04 23:31 42.31065 -86.42979 27058 ft 489 kts 86°
2026-05-04 23:31 42.31277 -86.38442 27450 ft 492 kts 86°
2026-05-04 23:31 42.31495 -86.33760 27848 ft 494 kts 86°
2026-05-04 23:32 42.31705 -86.29183 28235 ft 496 kts 86°
2026-05-04 23:32 42.31918 -86.24515 28614 ft 499 kts 86°
2026-05-04 23:32 42.32131 -86.19823 28979 ft 502 kts 86°
2026-05-04 23:32 42.32342 -86.15110 29338 ft 504 kts 86°
2026-05-04 23:33 42.32553 -86.10368 29664 ft 507 kts 86°
2026-05-04 23:33 42.32763 -86.05602 29953 ft 509 kts 86°
2026-05-04 23:33 42.32971 -86.00816 30285 ft 510 kts 87°
2026-05-04 23:33 42.33177 -85.96042 30712 ft 508 kts 87°
2026-05-04 23:34 42.33315 -85.92824 31022 ft 507 kts 87°
2026-05-04 23:34 42.33581 -85.86545 31577 ft 505 kts 87°
2026-05-04 23:34 42.33716 -85.83337 31783 ft 506 kts 87°
2026-05-04 23:34 42.33914 -85.78580 32094 ft 507 kts 87°
2026-05-04 23:35 42.34110 -85.73829 32492 ft 506 kts 87°
2026-05-04 23:35 42.34301 -85.69159 32912 ft 504 kts 87°
2026-05-04 23:35 42.34492 -85.64437 33284 ft 503 kts 87°
2026-05-04 23:35 42.34680 -85.59718 33617 ft 503 kts 87°
2026-05-04 23:36 42.34867 -85.55005 33899 ft 502 kts 87°
2026-05-04 23:36 42.35051 -85.50292 34186 ft 502 kts 87°
2026-05-04 23:36 42.35234 -85.45587 34462 ft 501 kts 87°
2026-05-04 23:36 42.35414 -85.40881 34728 ft 501 kts 87°
2026-05-04 23:37 42.35592 -85.36204 35077 ft 498 kts 87°
2026-05-04 23:37 42.35767 -85.31524 35374 ft 497 kts 87°
2026-05-04 23:37 42.35941 -85.26857 35614 ft 497 kts 87°
2026-05-04 23:37 42.36112 -85.22188 35853 ft 497 kts 87°
2026-05-04 23:38 42.36281 -85.17526 36128 ft 496 kts 87°
2026-05-04 23:38 42.36448 -85.12875 36391 ft 495 kts 87°
2026-05-04 23:38 42.36613 -85.08224 36602 ft 495 kts 87°
2026-05-04 23:38 42.36777 -85.03553 36595 ft 499 kts 87°
2026-05-04 23:39 42.37102 -84.94122 36623 ft 505 kts 88°
2026-05-04 23:39 42.37423 -84.84581 36622 ft 510 kts 88°
2026-05-04 23:40 42.37738 -84.74986 36616 ft 512 kts 88°
2026-05-04 23:40 42.38045 -84.65364 36626 ft 512 kts 88°
2026-05-04 23:41 42.38345 -84.55730 36638 ft 512 kts 88°
2026-05-04 23:41 42.38636 -84.46125 36642 ft 511 kts 88°
2026-05-04 23:42 42.38919 -84.36524 36612 ft 510 kts 88°
2026-05-04 23:42 42.39477 -84.26965 36614 ft 510 kts 83°
2026-05-04 23:43 42.40306 -84.17451 36612 ft 509 kts 83°
2026-05-04 23:43 42.41127 -84.07940 36609 ft 508 kts 83°
2026-05-04 23:44 42.41889 -83.98432 36605 ft 508 kts 84°
2026-05-04 23:44 42.42616 -83.88923 36618 ft 508 kts 84°
2026-05-04 23:45 42.43330 -83.79413 36630 ft 508 kts 84°
2026-05-04 23:45 42.44040 -83.69899 36634 ft 508 kts 84°
2026-05-04 23:46 42.44743 -83.60382 36644 ft 508 kts 84°
2026-05-04 23:46 42.45440 -83.50861 36632 ft 508 kts 84°
2026-05-04 23:47 42.46128 -83.41344 36614 ft 508 kts 84°
2026-05-04 23:47 42.46808 -83.31826 36609 ft 507 kts 84°
2026-05-04 23:48 42.47479 -83.22319 36610 ft 507 kts 84°
2026-05-04 23:48 42.48142 -83.12812 36610 ft 507 kts 84°
2026-05-04 23:49 42.48792 -83.03375 36605 ft 506 kts 84°
2026-05-04 23:49 42.49428 -82.94036 36609 ft 506 kts 84°
2026-05-04 23:50 42.50067 -82.84546 36575 ft 506 kts 84°
2026-05-04 23:50 42.50697 -82.75054 36578 ft 505 kts 84°
2026-05-04 23:51 42.51319 -82.65571 36581 ft 505 kts 84°
2026-05-04 23:51 42.51932 -82.56100 36592 ft 504 kts 84°
2026-05-04 23:52 42.52536 -82.46639 36616 ft 504 kts 84°
2026-05-04 23:52 42.53133 -82.37175 36632 ft 504 kts 84°
2026-05-04 23:53 42.53723 -82.27699 36631 ft 505 kts 84°
2026-05-04 23:53 42.54306 -82.18210 36636 ft 505 kts 84°
2026-05-04 23:54 42.54881 -82.08706 36640 ft 506 kts 84°
2026-05-04 23:54 42.55450 -81.99188 36637 ft 506 kts 85°
2026-05-04 23:55 42.56011 -81.89657 36641 ft 507 kts 85°
2026-05-04 23:56 42.56838 -81.75365 36642 ft 507 kts 85°
2026-05-04 23:56 42.57379 -81.65832 36643 ft 507 kts 85°
2026-05-04 23:57 42.57913 -81.56295 36651 ft 507 kts 85°
2026-05-04 23:57 42.58439 -81.46739 36660 ft 508 kts 85°
2026-05-04 23:58 42.58957 -81.37192 36658 ft 508 kts 85°
2026-05-04 23:58 42.59468 -81.27636 36664 ft 507 kts 85°
2026-05-04 23:59 42.59970 -81.18093 36679 ft 507 kts 85°
2026-05-04 23:59 42.60463 -81.08556 36678 ft 506 kts 85°
2026-05-05 00:00 42.60948 -80.99029 36682 ft 506 kts 85°
2026-05-05 00:00 42.61425 -80.89504 36683 ft 505 kts 85°
2026-05-05 00:01 42.61891 -80.80055 36693 ft 505 kts 85°
2026-05-05 00:01 42.62351 -80.70548 36693 ft 504 kts 86°
2026-05-05 00:02 42.62803 -80.61049 36694 ft 504 kts 86°
2026-05-05 00:02 42.63247 -80.51550 36705 ft 504 kts 86°
2026-05-05 00:03 42.63683 -80.42057 36692 ft 504 kts 86°
2026-05-05 00:03 42.64111 -80.32561 36695 ft 503 kts 86°
2026-05-05 00:04 42.64531 -80.23070 36693 ft 503 kts 86°
2026-05-05 00:04 42.64943 -80.13579 36695 ft 503 kts 86°
2026-05-05 00:05 42.65347 -80.04090 36691 ft 503 kts 86°
2026-05-05 00:05 42.65744 -79.94597 36692 ft 503 kts 86°
2026-05-05 00:06 42.66130 -79.85172 36691 ft 503 kts 86°
2026-05-05 00:06 42.66513 -79.75615 36697 ft 503 kts 86°
2026-05-05 00:07 42.66883 -79.66184 36697 ft 503 kts 86°
2026-05-05 00:07 42.67248 -79.56690 36703 ft 503 kts 86°
2026-05-05 00:08 42.67605 -79.47197 36705 ft 503 kts 86°
2026-05-05 00:08 42.67954 -79.37699 36717 ft 503 kts 86°
2026-05-05 00:09 42.68296 -79.28200 36712 ft 503 kts 86°
2026-05-05 00:09 42.68630 -79.18703 36711 ft 503 kts 86°
2026-05-05 00:10 42.68956 -79.09201 36711 ft 503 kts 86°
2026-05-05 00:10 42.69273 -78.99699 36715 ft 503 kts 86°
2026-05-05 00:11 42.69584 -78.90197 36723 ft 503 kts 86°
2026-05-05 00:11 42.69886 -78.80688 36726 ft 504 kts 86°
2026-05-05 00:12 42.70181 -78.71176 36724 ft 504 kts 86°
2026-05-05 00:12 42.70467 -78.61663 36727 ft 504 kts 86°
2026-05-05 00:13 42.70746 -78.52152 36727 ft 503 kts 86°
2026-05-05 00:13 42.71017 -78.42640 36725 ft 503 kts 86°
2026-05-05 00:14 42.71280 -78.33127 36723 ft 503 kts 86°
2026-05-05 00:14 42.71536 -78.23609 36734 ft 503 kts 86°
2026-05-05 00:15 42.71783 -78.14096 36731 ft 503 kts 86°
2026-05-05 00:15 42.72022 -78.04590 36740 ft 503 kts 87°
2026-05-05 00:16 42.72254 -77.95072 36725 ft 503 kts 87°
2026-05-05 00:16 42.72476 -77.85621 36733 ft 504 kts 87°
2026-05-05 00:17 42.72692 -77.76097 36742 ft 504 kts 87°
2026-05-05 00:17 42.72900 -77.66573 36738 ft 504 kts 87°
2026-05-05 00:18 42.73100 -77.57046 36742 ft 504 kts 87°
2026-05-05 00:18 42.73292 -77.47515 36737 ft 504 kts 87°
2026-05-05 00:19 42.73477 -77.37998 36750 ft 503 kts 87°
2026-05-05 00:19 42.73653 -77.28481 36749 ft 504 kts 87°
2026-05-05 00:20 42.73822 -77.18955 36749 ft 504 kts 87°
2026-05-05 00:20 42.73983 -77.09424 36748 ft 504 kts 87°
2026-05-05 00:21 42.74135 -76.99897 36745 ft 504 kts 87°
2026-05-05 00:21 42.74280 -76.90367 36748 ft 504 kts 87°
2026-05-05 00:22 42.74417 -76.80843 36735 ft 503 kts 87°
2026-05-05 00:22 42.74526 -76.72874 36737 ft 503 kts 87°
2026-05-05 00:23 42.74648 -76.63361 36760 ft 503 kts 87°
2026-05-05 00:23 42.74762 -76.53916 36751 ft 503 kts 87°
2026-05-05 00:24 42.74868 -76.44410 36750 ft 502 kts 87°
2026-05-05 00:24 42.74967 -76.34916 36758 ft 502 kts 87°
2026-05-05 00:25 42.75058 -76.25427 36755 ft 501 kts 88°
2026-05-05 00:25 42.75141 -76.15937 36754 ft 501 kts 88°
2026-05-05 00:26 42.75215 -76.06460 36769 ft 501 kts 88°
2026-05-05 00:26 42.75283 -75.96980 36766 ft 501 kts 88°
2026-05-05 00:27 42.75342 -75.87502 36778 ft 501 kts 88°
2026-05-05 00:27 42.75394 -75.78018 36790 ft 502 kts 88°
2026-05-05 00:28 42.75437 -75.68533 36785 ft 501 kts 88°
2026-05-05 00:28 42.75473 -75.59048 36784 ft 501 kts 88°
2026-05-05 00:29 42.75501 -75.49565 36791 ft 501 kts 88°
2026-05-05 00:29 42.75521 -75.40089 36792 ft 501 kts 88°
2026-05-05 00:30 42.75534 -75.30609 36786 ft 501 kts 88°
2026-05-05 00:30 42.75538 -75.21128 36801 ft 501 kts 88°
2026-05-05 00:31 42.75535 -75.11655 36797 ft 501 kts 88°
2026-05-05 00:31 42.75524 -75.02184 36809 ft 500 kts 88°
2026-05-05 00:32 42.75505 -74.92717 36795 ft 500 kts 88°
2026-05-05 00:32 42.75479 -74.83258 36801 ft 500 kts 88°
2026-05-05 00:33 42.75445 -74.73803 36798 ft 500 kts 88°
2026-05-05 00:33 42.75402 -74.64346 36803 ft 500 kts 88°
2026-05-05 00:34 42.75352 -74.54893 36802 ft 500 kts 88°
2026-05-05 00:34 42.75295 -74.45433 36810 ft 500 kts 88°
2026-05-05 00:35 42.75229 -74.35982 36811 ft 500 kts 89°
2026-05-05 00:35 42.75156 -74.26525 36810 ft 500 kts 88°
2026-05-05 00:36 42.75075 -74.17084 36795 ft 500 kts 89°
2026-05-05 00:36 42.74987 -74.07619 36808 ft 499 kts 89°
2026-05-05 00:37 42.74890 -73.98176 36804 ft 499 kts 89°
2026-05-05 00:37 42.74787 -73.88749 36797 ft 500 kts 89°
2026-05-05 00:38 42.74679 -73.79300 36794 ft 499 kts 89°
2026-05-05 00:38 42.74611 -73.69913 36796 ft 499 kts 88°
2026-05-05 00:39 42.74552 -73.60479 36608 ft 495 kts 88°
2026-05-05 00:39 42.74518 -73.55825 36328 ft 490 kts 88°
2026-05-05 00:39 42.74480 -73.51191 36082 ft 490 kts 88°
2026-05-05 00:39 42.74441 -73.46544 35866 ft 493 kts 88°
2026-05-05 00:40 42.74400 -73.41878 35595 ft 492 kts 88°
2026-05-05 00:40 42.74356 -73.37199 34411 ft 497 kts 87°
2026-05-05 00:40 42.74308 -73.32556 33801 ft 486 kts 87°
2026-05-05 00:40 42.74258 -73.27986 33132 ft 480 kts 86°
2026-05-05 00:41 42.74210 -73.23472 32551 ft 476 kts 87°
2026-05-05 00:41 42.74162 -73.18986 32002 ft 471 kts 87°
2026-05-05 00:41 42.74112 -73.14551 31451 ft 467 kts 87°
2026-05-05 00:41 42.74026 -73.10145 30895 ft 465 kts 91°
2026-05-05 00:42 42.73659 -73.05787 30375 ft 463 kts 96°
2026-05-05 00:42 42.73128 -73.01487 29851 ft 460 kts 98°
2026-05-05 00:42 42.72553 -72.97216 29233 ft 457 kts 98°
2026-05-05 00:42 42.71994 -72.92984 28709 ft 452 kts 98°
2026-05-05 00:43 42.71466 -72.88793 28148 ft 448 kts 97°
2026-05-05 00:43 42.70964 -72.84628 27634 ft 444 kts 97°
2026-05-05 00:43 42.70479 -72.80498 27094 ft 441 kts 97°
2026-05-05 00:43 42.70001 -72.76397 26570 ft 438 kts 97°
2026-05-05 00:44 42.69525 -72.72326 26056 ft 435 kts 97°
2026-05-05 00:44 42.69049 -72.68279 25548 ft 432 kts 97°
2026-05-05 00:44 42.68573 -72.64258 25043 ft 430 kts 97°
2026-05-05 00:44 42.68095 -72.60258 24545 ft 428 kts 98°
2026-05-05 00:45 42.67612 -72.56281 24039 ft 426 kts 98°
2026-05-05 00:45 42.67129 -72.52317 23515 ft 425 kts 98°
2026-05-05 00:45 42.66646 -72.48359 22938 ft 424 kts 98°
2026-05-05 00:45 42.66165 -72.44429 22381 ft 421 kts 98°
2026-05-05 00:46 42.65686 -72.40519 21879 ft 418 kts 98°
2026-05-05 00:46 42.65211 -72.36646 21402 ft 414 kts 99°
2026-05-05 00:46 42.64737 -72.32804 20916 ft 411 kts 99°
2026-05-05 00:46 42.64275 -72.28989 20450 ft 408 kts 98°
2026-05-05 00:47 42.63834 -72.25192 19990 ft 405 kts 98°
2026-05-05 00:47 42.63402 -72.21428 19533 ft 402 kts 99°
2026-05-05 00:47 42.62977 -72.17740 19095 ft 399 kts 99°
2026-05-05 00:47 42.62540 -72.13979 18652 ft 397 kts 99°
2026-05-05 00:48 42.62116 -72.10343 18210 ft 394 kts 99°
2026-05-05 00:48 42.61684 -72.06675 17713 ft 392 kts 99°
2026-05-05 00:48 42.61253 -72.03033 17265 ft 389 kts 99°
2026-05-05 00:48 42.60813 -71.99451 16913 ft 383 kts 100°
2026-05-05 00:49 42.60371 -71.95910 16473 ft 380 kts 100°
2026-05-05 00:49 42.59930 -71.92382 16044 ft 377 kts 100°
2026-05-05 00:49 42.59495 -71.88887 15625 ft 374 kts 100°
2026-05-05 00:49 42.59061 -71.85416 15203 ft 372 kts 100°
2026-05-05 00:50 42.58629 -71.81966 14793 ft 370 kts 100°
2026-05-05 00:50 42.58141 -71.78547 14383 ft 368 kts 102°
2026-05-05 00:50 42.57597 -71.75165 13975 ft 367 kts 103°
2026-05-05 00:50 42.57043 -71.71798 13549 ft 365 kts 103°
2026-05-05 00:51 42.56497 -71.68438 13091 ft 364 kts 102°
2026-05-05 00:51 42.55961 -71.65086 12657 ft 362 kts 102°
2026-05-05 00:51 42.55433 -71.61761 12238 ft 360 kts 102°
2026-05-05 00:51 42.54903 -71.58480 11832 ft 350 kts 104°
2026-05-05 00:52 42.54289 -71.55340 11496 ft 340 kts 106°
2026-05-05 00:52 42.53656 -71.52364 11164 ft 329 kts 107°
2026-05-05 00:52 42.53014 -71.49381 10841 ft 322 kts 106°
2026-05-05 00:52 42.52395 -71.46472 10531 ft 320 kts 106°
2026-05-05 00:53 42.51788 -71.43579 10218 ft 318 kts 105°
2026-05-05 00:53 42.51189 -71.40708 9904 ft 316 kts 105°
2026-05-05 00:53 42.50594 -71.37857 9570 ft 314 kts 105°
2026-05-05 00:53 42.50010 -71.35020 9237 ft 312 kts 105°
2026-05-05 00:54 42.49445 -71.32188 8899 ft 310 kts 105°
2026-05-05 00:54 42.48888 -71.29378 8576 ft 308 kts 105°
2026-05-05 00:54 42.48334 -71.26591 8282 ft 306 kts 105°
2026-05-05 00:54 42.47781 -71.23819 8008 ft 304 kts 105°
2026-05-05 00:55 42.47230 -71.21069 7695 ft 301 kts 105°
2026-05-05 00:55 42.46692 -71.18391 7389 ft 294 kts 105°
2026-05-05 00:55 42.46419 -71.15755 7064 ft 285 kts 82°
2026-05-05 00:55 42.46931 -71.13255 6879 ft 269 kts 63°
2026-05-05 00:56 42.47731 -71.10999 6543 ft 264 kts 59°
2026-05-05 00:56 42.48573 -71.08780 6112 ft 265 kts 59°
2026-05-05 00:56 42.49534 -71.06669 5653 ft 260 kts 39°
2026-05-05 00:56 42.50994 -71.05357 5210 ft 249 kts 18°
2026-05-05 00:57 42.52610 -71.04518 4744 ft 249 kts 13°
2026-05-05 00:57 42.54243 -71.03753 4348 ft 248 kts 13°
2026-05-05 00:57 42.55875 -71.02977 4003 ft 248 kts 14°
2026-05-05 00:57 42.57409 -71.01921 3970 ft 255 kts 38°
2026-05-05 00:58 42.58456 -70.99965 3751 ft 254 kts 70°
2026-05-05 00:58 42.58675 -70.97647 3290 ft 251 kts 104°
2026-05-05 00:58 42.57981 -70.95534 3222 ft 245 kts 136°
2026-05-05 00:58 42.56645 -70.94241 3125 ft 231 kts 167°
2026-05-05 00:59 42.55113 -70.93726 3031 ft 226 kts 174°
2026-05-05 00:59 42.53632 -70.93343 2989 ft 207 kts 175°
2026-05-05 00:59 42.52275 -70.93044 2967 ft 187 kts 186°
2026-05-05 00:59 42.51102 -70.93521 2896 ft 178 kts 208°
2026-05-05 01:00 42.49940 -70.94012 2623 ft 180 kts 198°
2026-05-05 01:00 42.48744 -70.94537 2357 ft 171 kts 206°
2026-05-05 01:00 42.47640 -70.95091 2116 ft 167 kts 204°
2026-05-05 01:00 42.46573 -70.95613 1920 ft 156 kts 204°
2026-05-05 01:01 42.45619 -70.96075 1741 ft 135 kts 205°
2026-05-05 01:01 42.44778 -70.96484 1555 ft 125 kts 206°
2026-05-05 01:01 42.43965 -70.96882 1390 ft 125 kts 205°
2026-05-05 01:01 42.43137 -70.97284 1254 ft 128 kts 205°
2026-05-05 01:02 42.42314 -70.97684 1078 ft 125 kts 204°
2026-05-05 01:02 42.41477 -70.98091 907 ft 131 kts 204°
2026-05-05 01:02 42.40611 -70.98512 745 ft 135 kts 203°
2026-05-05 01:02 42.39732 -70.98942 592 ft 136 kts 202°
2026-05-05 01:03 42.38841 -70.99370 398 ft 135 kts 204°
2026-05-05 01:03 42.37998 -70.99778 197 ft 130 kts 202°
2026-05-05 01:03 42.37119 -71.00208 35 ft 127 kts 202°
2026-05-05 01:03 42.36395 -71.00555 27 ft 85 kts 201°
2026-05-05 01:04 42.36036 -71.00731 21 ft 24 kts 205°
2026-05-05 01:04 42.35884 -71.00964 21 ft 16 kts 229°
2026-05-05 01:04 42.35834 -71.01090 22 ft 15 kts 260°
2026-05-05 01:05 42.35830 -71.01194 23 ft 6 kts 283°
2026-05-05 01:05 42.35842 -71.01254 27 ft 8 kts 284°
2026-05-05 01:05 42.35855 -71.01337 27 ft 10 kts 279°
2026-05-05 01:05 42.35866 -71.01437 28 ft 12 kts 279°
2026-05-05 01:06 42.35885 -71.01563 29 ft 15 kts 279°
2026-05-05 01:06 42.35939 -71.01650 29 ft 12 kts 356°
2026-05-05 01:06 42.35992 -71.01697 28 ft 0 kts 311°